[[{"header":{"parameterUnit":"m.s-1","parameterCategory":1,"la1":30.2991,"la2":30.254,"lo1":-89.0895,"lo2":-89.0444,"dx":0.0017,"dy":0.0017,"nx":28,"ny":28,"refTime":"2022-11-16T15:00:00:Z","depth":0,"parameterNumber":2,"parameterNumberName":"U-component_of_WINDS"},"data":[0,0,0,0,0,0,0,0,0,0,0,0,0,0,0,0,0,0,0,0,0,0,0,0,0,0,0,0,0,0,0,0,0,0,0,0,0,0,0,0,0,0,0,0,0,0,0,0,0,0,0,0,0,0,0,0,0,0,-0.0083,-0.0083,0,-0.0141,-0.0142,-0.0143,-0.0115,-0.0114,-0.0112,-0.0111,-0.0175,-0.0178,-0.0181,0,0,0,0,0,0,0,0,0,0,0,0,0,0.0051,0.0048,-0.0083,-0.0083,-0.0084,-0.0141,-0.0142,-0.0143,-0.0115,-0.0114,-0.0112,-0.011,-0.0174,-0.0177,-0.0181,0,0,0,0,0,0,0,0,0,0,0,0,0,-0.0008,0.0047,-0.0082,-0.0077,-0.0077,-0.0141,-0.0142,-0.0143,-0.0116,-0.0114,-0.0111,-0.0109,-0.0172,-0.0177,-0.0181,-0.0255,0,0,-0.0196,-0.0198,0,0,0,0,0,0,0,0,-0.0004,-0.0012,-0.0077,-0.0078,-0.0078,-0.0118,-0.0118,-0.0181,-0.0116,-0.0101,-0.0111,-0.0108,-0.0158,-0.0164,-0.018,-0.0258,-0.0261,-0.0196,-0.0199,-0.0201,-0.0202,0,0,0,0,0,0,0,-0.0,-0.001,-0.0106,-0.0078,-0.0079,-0.0073,-0.0078,-0.013,-0.0142,-0.0102,-0.0101,-0.0108,-0.0158,-0.0175,-0.0181,-0.0262,-0.0196,-0.02,-0.0203,-0.0205,-0.0402,-0.0405,0,0,0,0,0,0,0.0004,-0.0007,-0.0104,-0.0108,-0.0035,-0.0077,-0.0083,-0.0108,-0.0141,-0.0144,-0.011,-0.0106,-0.0169,-0.0176,-0.0183,-0.0271,-0.0201,-0.0205,-0.0208,-0.04,-0.0403,-0.0406,0,0,0,0,0,0,0.0007,-0.0005,-0.0102,-0.0057,-0.0068,-0.0081,-0.0109,-0.011,-0.0128,-0.0146,-0.0149,-0.0125,-0.0167,-0.0177,-0.0237,-0.0273,-0.0207,-0.0212,-0.0397,-0.0401,-0.0404,-0.0449,0,0,0,0,0,0,0.0011,-0.0004,-0.0032,-0.0057,-0.0071,-0.0154,-0.0111,-0.0113,-0.0135,-0.0131,-0.0162,-0.0165,-0.0166,-0.023,-0.0242,-0.0279,-0.0215,-0.0394,-0.0399,-0.0403,-0.0444,-0.0453,-0.0461,0,0,0,0,0,0.0015,-0.0043,-0.0033,-0.0045,-0.0106,-0.0156,-0.0164,-0.0164,-0.0138,-0.0167,-0.0178,-0.0164,-0.0267,-0.0237,-0.0249,-0.0288,-0.0392,-0.0397,-0.0403,-0.044,-0.0452,-0.0461,0,0,0,0,0,0,-0.0023,-0.0046,-0.0036,-0.0104,-0.0128,-0.0151,-0.0187,-0.0176,-0.0209,-0.0204,-0.0203,-0.021,-0.0272,-0.0286,-0.0252,-0.036,-0.0326,-0.0334,-0.035,-0.0361,-0.0369,-0.0366,-0.0219,0,0,0,0,0,-0.0039,-0.0077,-0.0096,-0.0154,-0.0166,-0.0175,-0.0197,-0.0194,-0.0219,-0.023,-0.0246,-0.0272,-0.031,-0.0336,-0.0372,-0.0445,-0.0451,-0.0478,-0.0486,-0.0494,-0.0501,-0.0541,-0.0553,-0.0424,-0.0424,-0.0424,0,0,-0.0074,-0.0091,-0.0115,-0.0162,-0.0181,-0.0221,-0.0184,-0.0228,-0.0258,-0.0237,-0.0295,-0.0307,-0.0336,-0.0403,-0.0433,-0.0416,-0.0538,-0.0501,-0.0506,-0.051,-0.0548,-0.056,-0.0571,-0.0428,-0.0427,-0.0426,0,0,-0.0157,-0.0173,-0.0224,-0.0242,-0.027,-0.0274,-0.0286,-0.0311,-0.0318,-0.0375,-0.036,-0.0396,-0.0462,-0.0483,-0.0503,-0.0591,-0.0579,-0.0603,-0.0649,-0.0687,-0.0698,-0.0707,-0.0739,-0.075,-0.061,-0.061,-0.061,0,-0.0197,-0.0256,-0.0251,-0.0296,-0.0317,-0.0298,-0.0349,-0.0368,-0.0406,-0.0422,-0.0401,-0.0483,-0.0501,-0.0572,-0.0594,-0.061,-0.0624,-0.0601,-0.0696,-0.0705,-0.0714,-0.0744,-0.0756,-0.0613,-0.0613,-0.0613,-0.0612,0,-0.0303,-0.0344,-0.0382,-0.0418,-0.0443,-0.0491,-0.0494,-0.052,-0.0514,-0.0521,-0.058,-0.06,-0.064,-0.0656,-0.0652,-0.0727,-0.0715,-0.0696,-0.0661,-0.0729,-0.0758,-0.0769,-0.0617,-0.0616,-0.0615,-0.0615,0,0,-0.0415,-0.0446,-0.046,-0.0476,-0.0504,-0.0536,-0.0582,-0.062,-0.0642,-0.0669,-0.0709,-0.0763,-0.0745,-0.0767,-0.0764,-0.0798,-0.0867,-0.0774,-0.0775,-0.0791,-0.0951,-0.0966,-0.098,-0.0858,-0.086,-0.0862,-0.0948,0,-0.0501,-0.0582,-0.0578,-0.0655,-0.0693,-0.0673,-0.0714,-0.0736,-0.0743,-0.0776,-0.0784,-0.0824,-0.0796,-0.0809,-0.0841,-0.0852,-0.0899,-0.0845,-0.0896,-0.0898,-0.0891,-0.0995,-0.1012,-0.1093,-0.096,-0.0962,-0.0963,0,-0.0613,-0.0642,-0.0721,-0.0742,-0.0758,-0.0795,-0.0828,-0.086,-0.0884,-0.0887,-0.091,-0.0901,-0.0949,-0.0911,-0.0977,-0.094,-0.096,-0.0968,-0.0972,-0.0978,-0.0936,-0.1005,-0.1119,-0.1131,-0.0981,-0.0979,-0.0978,0,-0.0688,-0.0746,-0.0801,-0.0815,-0.084,-0.0867,-0.0879,-0.09,-0.0922,-0.0952,-0.0966,-0.1001,-0.102,-0.1047,-0.1048,-0.1021,-0.1115,-0.1077,-0.112,-0.112,-0.1142,-0.1141,-0.1262,-0.1153,-0.1153,-0.1152,-0.1152,0,-0.0785,-0.0835,-0.0834,-0.0869,-0.0923,-0.0918,-0.0973,-0.0982,-0.1001,-0.1037,-0.1022,-0.1056,-0.1055,-0.109,-0.1091,-0.1145,-0.1154,-0.1158,-0.1158,-0.116,-0.116,-0.1175,-0.117,-0.1156,-0.1155,-0.1154,-0.1154,0,-0.0879,-0.088,-0.0939,-0.0958,-0.0963,-0.1003,-0.1019,-0.1052,-0.1056,-0.1102,-0.1112,-0.112,-0.116,-0.1163,-0.1209,-0.121,-0.1276,-0.1269,-0.1268,-0.1267,-0.131,-0.1306,-0.1446,-0.1464,-0.1342,-0.1343,-0.1344,0,-0.0942,-0.0979,-0.1001,-0.1023,-0.1036,-0.1072,-0.1094,-0.109,-0.1114,-0.1143,-0.1172,-0.121,-0.124,-0.1305,-0.1315,-0.135,-0.1345,-0.1391,-0.135,-0.1351,-0.1347,-0.1345,-0.1349,-0.14,-0.1401,-0.1402,-0.1403,0,-0.1053,-0.1052,-0.1083,-0.1115,-0.1141,-0.1167,-0.119,-0.1209,-0.1208,-0.1235,-0.1275,-0.1298,-0.1344,-0.1382,-0.1416,-0.1429,-0.1417,-0.1415,-0.1427,-0.1431,-0.1429,-0.1431,-0.1291,-0.1413,-0.1412,-0.1411,-0.1411,-0.141,-0.1134,-0.1166,-0.1186,-0.1222,-0.1238,-0.126,-0.1291,-0.1299,-0.1331,-0.1368,-0.1363,-0.1407,-0.1429,-0.1473,-0.1488,-0.1523,-0.1508,-0.1525,-0.1529,-0.1534,-0.1539,-0.1422,-0.1529,-0.1529,-0.1529,-0.1528,-0.1528,0,-0.1246,-0.1257,-0.1289,-0.1322,-0.135,-0.1333,-0.1357,-0.1382,-0.1421,-0.1441,-0.1471,-0.1516,-0.1552,-0.1564,-0.1599,-0.1625,-0.162,-0.1634,-0.1633,-0.1637,-0.155,-0.1537,-0.1638,-0.1638,-0.1638,-0.1638,-0.1638,-0.1638,-0.1307,-0.136,-0.1361,-0.1422,-0.1433,-0.1475,-0.1491,-0.1511,-0.1527,-0.1578,-0.1607,-0.1614,-0.1631,-0.1667,-0.17,-0.1702,-0.1716,-0.1734,-0.1734,-0.1654,-0.1643,-0.1632,-0.162,-0.1737,-0.1737,-0.1818,-0.1818,-0.1819]},{"header":{"parameterUnit":"m.s-1","parameterCategory":1,"la1":30.2991,"la2":30.254,"lo1":-89.0895,"lo2":-89.0444,"dx":0.0017,"dy":0.0017,"nx":28,"ny":28,"refTime":"2022-11-16T15:00:00:Z","depth":0,"parameterNumber":3,"parameterNumberName":"V-component_of_WINDS"},"data":[0,0,0,0,0,0,0,0,0,0,0,0,0,0,0,0,0,0,0,0,0,0,0,0,0,0,0,0,0,0,0,0,0,0,0,0,0,0,0,0,0,0,0,0,0,0,0,0,0,0,0,0,0,0,0,0,0,0,-6.1039,-6.104,0,-6.1178,-6.1179,-6.1181,-6.1104,-6.11,-6.1097,-6.1093,-6.1231,-6.1238,-6.1245,0,0,0,0,0,0,0,0,0,0,0,0,0,-6.0701,-6.0708,-6.1039,-6.104,-6.1042,-6.1178,-6.118,-6.1181,-6.1105,-6.11,-6.1096,-6.1091,-6.1228,-6.1237,-6.1245,0,0,0,0,0,0,0,0,0,0,0,0,0,-6.0845,-6.071,-6.1038,-6.102,-6.102,-6.1177,-6.118,-6.1182,-6.1106,-6.11,-6.1094,-6.1089,-6.1225,-6.1236,-6.1247,-6.1428,0,0,-6.128,-6.1284,0,0,0,0,0,0,0,0,-6.0837,-6.0857,-6.1021,-6.1022,-6.1022,-6.1118,-6.1111,-6.1264,-6.1107,-6.1073,-6.1093,-6.1086,-6.1197,-6.121,-6.1249,-6.1434,-6.144,-6.1281,-6.1287,-6.1292,-6.1295,0,0,0,0,0,0,0,-6.0827,-6.0851,-6.1094,-6.1024,-6.1024,-6.1003,-6.1018,-6.114,-6.1166,-6.1076,-6.1071,-6.1088,-6.1196,-6.1239,-6.1251,-6.1442,-6.128,-6.129,-6.1297,-6.1301,-6.178,-6.1786,0,0,0,0,0,0,-6.0819,-6.0843,-6.1089,-6.1098,-6.0913,-6.1014,-6.103,-6.1093,-6.1164,-6.117,-6.1093,-6.1084,-6.1223,-6.1239,-6.1256,-6.1471,-6.1292,-6.1302,-6.1308,-6.1774,-6.1782,-6.1789,0,0,0,0,0,0,-6.0812,-6.0841,-6.1084,-6.0969,-6.0998,-6.1026,-6.1097,-6.1099,-6.1141,-6.1177,-6.1181,-6.1132,-6.1219,-6.1241,-6.1385,-6.1475,-6.1307,-6.1317,-6.1767,-6.1777,-6.1785,-6.1904,0,0,0,0,0,0,-6.0802,-6.0839,-6.091,-6.0971,-6.1005,-6.1213,-6.1103,-6.1105,-6.116,-6.115,-6.1214,-6.1219,-6.1216,-6.137,-6.1396,-6.1487,-6.1325,-6.1759,-6.1771,-6.1782,-6.1892,-6.1916,-6.1937,0,0,0,0,0,-6.0791,-6.0937,-6.0914,-6.0944,-6.1094,-6.1218,-6.1237,-6.1232,-6.1168,-6.1238,-6.1261,-6.1217,-6.1461,-6.1385,-6.1414,-6.1509,-6.1753,-6.1768,-6.1781,-6.1882,-6.1911,-6.1936,0,0,0,0,0,0,-6.0885,-6.0945,-6.092,-6.1091,-6.1151,-6.1205,-6.1294,-6.1263,-6.1341,-6.1328,-6.1316,-6.1331,-6.1482,-6.151,-6.1425,-6.1687,-6.1597,-6.1617,-6.1663,-6.1692,-6.1713,-6.1703,-6.1334,0,0,0,0,0,-6.0926,-6.1023,-6.107,-6.1217,-6.1248,-6.1266,-6.132,-6.1311,-6.1371,-6.1395,-6.1429,-6.1487,-6.1576,-6.1636,-6.172,-6.1896,-6.1907,-6.1975,-6.1998,-6.2016,-6.2033,-6.2126,-6.2156,-6.1835,-6.1835,-6.1834,0,0,-6.1011,-6.1056,-6.1118,-6.1237,-6.1281,-6.1381,-6.1287,-6.1397,-6.147,-6.1411,-6.155,-6.1577,-6.1641,-6.1801,-6.1874,-6.1829,-6.2125,-6.2034,-6.2048,-6.2056,-6.2144,-6.2174,-6.2201,-6.1844,-6.1843,-6.1841,0,0,-6.1216,-6.1261,-6.1387,-6.1434,-6.1503,-6.1514,-6.1545,-6.1604,-6.162,-6.1759,-6.1717,-6.1802,-6.1957,-6.2004,-6.2048,-6.2271,-6.2232,-6.2298,-6.2414,-6.2505,-6.253,-6.2553,-6.263,-6.2658,-6.2316,-6.2316,-6.2316,0,-6.1313,-6.1463,-6.1456,-6.1569,-6.1621,-6.1573,-6.17,-6.1745,-6.1838,-6.1874,-6.1823,-6.2016,-6.2056,-6.2226,-6.228,-6.2318,-6.235,-6.229,-6.2528,-6.255,-6.2571,-6.2644,-6.2674,-6.2323,-6.2323,-6.2322,-6.2321,0,-6.1577,-6.1682,-6.1775,-6.1867,-6.193,-6.2049,-6.2058,-6.2122,-6.2107,-6.2122,-6.2263,-6.231,-6.2402,-6.2441,-6.2428,-6.2609,-6.2579,-6.2529,-6.2437,-6.2609,-6.2678,-6.2706,-6.2334,-6.2331,-6.2329,-6.2327,0,0,-6.1846,-6.1932,-6.1967,-6.2007,-6.2079,-6.2159,-6.2274,-6.2366,-6.242,-6.2485,-6.258,-6.2712,-6.2665,-6.2716,-6.2706,-6.2786,-6.2957,-6.2725,-6.2726,-6.2765,-6.3157,-6.3194,-6.3227,-6.2932,-6.2938,-6.2942,-6.3151,0,-6.2055,-6.226,-6.2256,-6.2445,-6.254,-6.2495,-6.2595,-6.2649,-6.2667,-6.2748,-6.2766,-6.2859,-6.2791,-6.2821,-6.2898,-6.292,-6.3035,-6.2905,-6.3018,-6.3023,-6.3003,-6.3263,-6.3303,-6.3498,-6.3178,-6.3183,-6.3186,0,-6.2327,-6.2402,-6.2601,-6.2658,-6.2697,-6.2788,-6.287,-6.295,-6.3009,-6.3015,-6.3071,-6.3049,-6.3164,-6.307,-6.3227,-6.3139,-6.3185,-6.3202,-6.321,-6.3219,-6.3114,-6.3278,-6.356,-6.3589,-6.3229,-6.3225,-6.3222,0,-6.2501,-6.2652,-6.279,-6.2826,-6.2896,-6.296,-6.2992,-6.3046,-6.3101,-6.3172,-6.3207,-6.3291,-6.3336,-6.34,-6.34,-6.3332,-6.3558,-6.3465,-6.3565,-6.3565,-6.3613,-6.361,-6.3906,-6.3646,-6.3645,-6.3645,-6.3644,0,-6.2735,-6.2858,-6.2869,-6.2954,-6.3089,-6.3082,-6.3216,-6.3241,-6.3289,-6.3376,-6.3342,-6.3424,-6.342,-6.3502,-6.3503,-6.3631,-6.3652,-6.3659,-6.3658,-6.3662,-6.3661,-6.3691,-6.3677,-6.3653,-6.3651,-6.3649,-6.3648,0,-6.2952,-6.2965,-6.3112,-6.3167,-6.3183,-6.328,-6.3325,-6.3405,-6.3418,-6.3529,-6.3554,-6.3576,-6.3671,-6.3677,-6.3787,-6.3787,-6.3943,-6.3927,-6.3923,-6.392,-6.4019,-6.4009,-6.4343,-6.4386,-6.41,-6.4102,-6.4105,0,-6.31,-6.3194,-6.3258,-6.3314,-6.335,-6.3442,-6.3497,-6.3494,-6.3553,-6.3626,-6.3696,-6.3788,-6.3862,-6.4015,-6.4039,-6.4122,-6.4107,-6.4219,-6.4119,-6.412,-6.4107,-6.4101,-6.4109,-6.4237,-6.4241,-6.4243,-6.4245,0,-6.336,-6.3361,-6.3444,-6.3529,-6.3596,-6.3662,-6.3723,-6.3771,-6.3774,-6.3842,-6.394,-6.3997,-6.4109,-6.4199,-6.428,-6.431,-6.4278,-6.4277,-6.4304,-6.4308,-6.4302,-6.4305,-6.3974,-6.4269,-6.4266,-6.4265,-6.4263,-6.4262,-6.3546,-6.3626,-6.3684,-6.3776,-6.3822,-6.388,-6.3957,-6.398,-6.4062,-6.4154,-6.4146,-6.4254,-6.4308,-6.4414,-6.445,-6.4532,-6.4494,-6.4534,-6.4544,-6.4554,-6.4563,-6.429,-6.4547,-6.4547,-6.4546,-6.4546,-6.4545,0,-6.3803,-6.3837,-6.3923,-6.401,-6.4082,-6.4047,-6.4112,-6.4174,-6.427,-6.4324,-6.4397,-6.4508,-6.4596,-6.4626,-6.4711,-6.4771,-6.4758,-6.4793,-6.4788,-6.4795,-6.4593,-6.4561,-6.4802,-6.4802,-6.4802,-6.4802,-6.4802,-6.4802,-6.3945,-6.4078,-6.4086,-6.4241,-6.4274,-6.438,-6.442,-6.4473,-6.4516,-6.4642,-6.4715,-6.4735,-6.4779,-6.4867,-6.4945,-6.4951,-6.4983,-6.5024,-6.5024,-6.4835,-6.4809,-6.4785,-6.4754,-6.5032,-6.5032,-6.5219,-6.522,-6.5222]}]]